Temperature
7 7 7 6 6 7 6 6 6 6 6 6 6 6 6 7 7 7 7 8 8 8 9 9 9 9 9 9 9 9 9 9 9 9 9 9 10 10 10 10 10 10 10
7 7 6 6 6 6 6 6 6 6 6 6 6 6 6 6 6 7 7 7 7 8 8 8 8 8 8 8 8 9 8 8 9 9 9 9 9 9 10 10 10 10 10
7 7 6 6 6 6 6 6 6 6 6 5 5 5 5 6 6 6 6 7 7 7 7 7 8 8 8 8 8 8 8 8 8 9 9 9 9 9 9 9 10 9 10
7 6 6 6 6 6 6 6 5 5 5 5 5 5 5 5 6 6 6 6 6 7 7 7 7 7 7 7 8 8 8 8 8 8 9 9 9 9 9 9 9 9 9
6 6 6 6 6 6 5 5 5 5 5 5 5 5 5 5 5 5 5 6 6 6 6 6 7 7 7 7 7 7 7 8 8 8 8 9 9 9 9 9 9 9 9
6 6 6 6 5 5 5 5 5 5 5 4 5 5 5 5 5 5 5 5 6 6 6 6 6 6 6 6 7 7 7 7 7 8 8 8 8 9 9 9 8 8 9
6 6 5 5 5 5 5 5 4 4 4 4 4 4 4 4 4 5 5 5 5 5 6 6 6 6 6 6 6 7 7 7 7 7 7 7 8 9 9 9 8 8 8
6 5 5 5 5 5 5 4 4 4 4 4 4 4 4 4 4 4 4 5 5 5 5 5 6 6 6 6 6 7 7 7 7 7 7 7 8 8 9 9 9 8 8
6 5 5 5 5 4 4 4 4 4 4 3 3 4 4 4 4 4 4 4 5 5 5 5 5 5 6 6 6 6 6 7 7 7 7 7 7 8 8 9 9 8 8
5 5 5 4 4 4 4 4 3 3 3 3 3 3 3 4 4 4 4 4 4 4 4 5 5 5 5 5 6 6 6 6 6 7 7 7 7 8 8 8 8 9 9
5 5 4 4 4 4 4 4 3 3 3 3 3 3 3 3 4 4 4 4 4 4 4 4 4 5 5 5 5 6 6 6 6 6 6 7 7 7 8 8 8 8 8
5 4 4 4 4 3 3 3 3 3 3 3 3 3 3 3 3 3 4 3 4 4 4 4 4 5 5 5 5 5 6 6 6 6 6 7 7 7 7 8 8 8 8
4 4 4 4 3 3 3 3 3 2 2 2 2 2 3 3 3 3 3 3 3 3 4 4 4 5 5 5 5 5 6 6 6 6 6 6 7 7 7 7 8 8 8
4 4 4 3 3 3 2 2 2 2 2 2 2 2 2 2 3 3 3 3 3 3 4 4 4 5 5 5 5 5 5 5 6 6 6 6 6 7 7 7 7 8 8
4 4 3 3 3 2 2 2 2 2 2 2 2 2 2 2 2 2 2 2 3 3 3 4 4 4 5 5 5 5 5 5 5 6 6 6 6 7 7 7 7 7 8
4 3 3 2 2 2 2 2 2 2 2 2 2 2 2 2 2 2 2 2 3 3 3 4 4 4 5 5 5 5 5 5 5 5 6 6 6 7 7 7 7 8 8
3 3 2 2 2 2 1 1 1 2 1 1 2 2 2 2 2 2 2 2 2 3 3 3 4 4 5 5 5 5 5 5 5 5 6 6 6 7 7 7 7 7 7
2 2 2 1 1 1 1 1 1 1 1 1 2 2 2 1 2 2 2 2 2 3 3 3 4 4 4 5 5 5 5 5 5 5 6 6 6 6 7 7 7 7 7
1 1 1 1 1 1 1 1 1 1 1 1 1 1 1 1 1 2 2 2 2 3 3 3 3 4 4 4 5 5 4 5 5 5 6 6 6 6 6 6 6 7 7
1 1 1 1 1 1 1 0 1 1 1 1 1 1 1 1 1 1 2 2 2 2 3 3 3 3 4 4 4 4 4 4 5 5 5 6 6 6 6 7 7 6 6
1 1 0 0 0 0 0 0 0 0 1 1 1 1 1 1 1 1 2 2 2 2 2 3 3 3 4 4 4 4 4 4 4 5 5 5 6 6 6 6 7 7 6
0 0 -0 -0 -0 -0 -0 -0 -0 0 0 0 1 1 1 1 1 1 1 2 2 2 2 2 2 3 3 3 4 4 4 4 5 5 5 5 6 6 6 6 6 6 6
-0 -0 -1 -0 -0 -0 -0 -0 -0 -0 -0 0 0 0 1 1 1 1 1 1 1 2 2 2 2 2 3 3 3 4 4 5 5 5 5 5 5 6 6 6 6 6 6
-1 -1 -1 -1 -1 -1 -1 -1 -1 -1 -1 -1 -0 -0 0 0 0 0 0 1 1 1 1 1 1 2 2 2 3 3 4 4 5 5 5 5 5 5 5 5 5 5 5
-1 -1 -1 -1 -1 -1 -1 -1 -1 -1 -1 -1 -1 -1 -1 -0 -0 0 0 0 1 1 1 1 1 1 2 2 2 3 3 4 4 4 4 4 4 5 4 5 5 5 5
-2 -2 -2 -2 -2 -2 -1 -1 -1 -2 -2 -2 -1 -1 -1 -1 -1 -0 -0 0 1 1 1 1 1 1 2 2 2 3 3 3 4 4 4 4 4 4 4 4 4 4 4
Wind_Speed
7 6 7 8 8 9 9 10 10 10 8 7 7 7 8 8 7 7 9 9 9 8 8 7 7 7 8 9 9 7 9 8 7 6 5 5 7 9 10 10 10 11 12
7 7 8 8 9 9 10 10 11 11 9 8 8 8 9 9 8 8 9 10 10 9 8 8 8 9 8 10 10 9 8 8 8 7 7 4 5 7 9 10 11 12 11
8 9 9 10 10 10 10 10 11 11 11 10 8 8 8 8 8 9 9 10 11 11 10 11 9 10 10 10 11 11 11 10 10 10 8 6 6 5 7 10 11 12 11
8 10 10 11 11 11 11 11 12 12 11 10 10 11 11 11 12 10 10 11 12 12 12 11 11 11 11 11 12 12 11 12 11 10 10 9 5 6 5 8 10 12 13
9 10 11 11 12 12 11 11 12 12 12 11 12 12 13 12 11 10 12 12 12 13 13 12 11 12 11 13 13 12 12 12 12 11 9 9 8 9 7 8 10 9 10
10 11 11 12 13 12 12 12 13 13 13 12 12 13 14 15 14 14 12 11 11 11 14 13 12 13 12 13 13 13 15 13 14 11 11 10 9 10 9 9 12 10 8
11 12 13 14 14 14 13 13 14 14 14 13 13 13 14 16 16 15 13 12 11 11 13 13 13 13 13 13 13 14 14 15 15 14 12 12 10 9 8 9 10 9 5
12 13 14 14 14 14 14 14 14 15 14 14 13 13 14 12 12 14 13 14 12 12 13 14 14 14 14 14 14 13 14 14 15 15 14 11 11 9 9 9 9 8 6
13 14 14 14 15 15 14 14 15 15 14 14 14 14 13 13 13 13 13 12 12 12 13 14 14 14 14 14 14 13 15 14 15 15 15 12 10 10 9 8 10 9 8
14 14 14 14 14 14 14 14 14 14 14 14 13 12 13 13 13 12 12 13 13 13 13 13 14 14 15 14 14 13 14 15 14 12 14 14 11 10 8 8 9 9 8
15 14 14 15 14 14 14 13 13 14 13 13 13 13 13 13 12 11 11 12 12 12 13 13 14 14 15 14 14 14 15 16 15 14 15 15 13 10 9 9 9 8 8
15 15 15 15 14 14 14 13 13 13 13 13 13 13 12 12 11 11 11 11 12 12 12 13 13 14 14 14 15 16 15 16 16 15 15 15 12 13 11 10 10 9 8
15 15 15 15 14 14 13 13 13 14 13 13 13 13 13 12 11 11 10 10 11 12 12 12 12 13 13 14 15 15 15 15 15 15 15 16 15 14 11 12 10 8 7
15 15 15 15 14 14 14 14 14 14 13 13 13 13 13 13 11 9 9 10 10 11 11 11 11 11 12 14 14 14 14 14 14 14 15 16 16 15 14 12 12 10 9
16 16 16 15 14 14 14 14 15 14 13 13 13 13 13 12 10 9 9 9 10 10 10 9 9 10 10 11 12 12 12 13 13 13 15 16 16 16 14 12 12 12 10
17 17 17 16 15 15 15 15 15 14 13 14 14 13 12 11 10 9 9 9 9 9 8 7 8 9 8 10 12 11 11 11 12 12 13 14 14 14 15 15 15 14 14
17 17 16 15 15 16 15 15 15 13 13 13 13 12 12 11 10 9 9 9 9 8 8 7 7 8 7 10 12 11 10 11 11 11 11 10 11 13 12 13 13 12 13
16 16 16 16 15 15 15 14 14 13 13 13 12 11 10 10 10 9 8 8 8 7 7 7 6 6 7 9 10 9 9 9 10 11 12 12 12 11 12 12 12 11 11
15 15 15 15 15 15 14 14 13 13 13 12 12 10 9 9 9 10 9 8 7 6 6 6 6 6 6 7 7 7 6 7 8 9 10 12 12 13 14 13 12 10 8
15 15 15 15 14 14 13 13 13 13 13 12 12 10 9 9 9 10 10 8 7 6 6 6 6 5 5 5 6 5 5 6 6 7 9 12 13 15 15 14 13 13 10
15 15 15 14 13 13 12 12 13 13 13 12 11 9 9 9 9 9 8 8 6 5 6 7 6 5 4 4 5 5 4 5 6 6 7 8 14 15 14 13 12 13 12
15 14 13 14 13 12 12 12 13 13 12 11 11 10 10 9 8 9 8 7 5 5 5 4 5 3 2 3 3 3 4 4 6 6 6 8 13 13 13 12 14 16 14
14 13 13 14 13 12 11 13 13 12 11 11 10 9 9 8 7 7 7 6 5 4 4 3 3 3 2 1 1 1 2 2 4 5 8 10 12 12 11 15 18 15 11
13 12 12 13 13 12 12 12 12 10 10 10 10 9 8 8 8 6 5 5 4 4 4 3 3 3 3 2 1 1 0 2 4 5 8 10 12 11 12 13 12 9 9
12 11 11 12 13 13 12 12 11 10 10 10 9 8 8 8 7 7 6 6 5 5 5 4 4 3 4 4 4 3 2 2 4 5 5 6 8 8 8 8 8 8 9
12 12 12 13 13 13 12 11 10 8 8 8 8 7 6 6 6 6 6 6 6 8 8 7 6 5 5 6 5 3 2 4 6 5 7 7 8 9 9 9 8 8 8
Wind_Direction
303 308 307 309 305 303 301 302 302 301 302 296 293 292 289 284 278 271 262 259 256 252 246 242 235 232 229 222 220 222 216 212 203 205 209 215 212 213 207 202 199 200 197
309 312 312 313 311 304 302 299 299 298 296 288 288 281 279 279 275 268 263 258 252 247 244 242 236 230 231 227 220 216 220 216 203 204 195 204 212 216 213 205 203 201 197
308 314 316 314 314 313 310 303 299 296 294 290 286 281 277 276 272 267 262 255 253 248 243 239 238 234 229 226 220 214 216 214 213 210 206 200 210 192 205 208 205 201 199
305 310 313 316 315 312 309 305 303 296 293 289 280 276 273 275 271 269 263 256 252 249 244 239 234 234 233 227 221 219 218 213 213 215 223 226 210 194 191 203 206 204 204
305 308 311 313 313 311 308 307 306 298 294 289 281 274 269 274 274 268 262 256 250 247 242 238 234 231 234 232 225 221 219 215 216 216 216 220 218 212 201 200 198 203 207
306 308 312 313 312 312 310 309 308 303 299 292 285 276 273 276 273 266 263 258 252 246 240 238 235 232 232 233 228 221 219 220 221 220 218 215 209 205 206 203 198 201 203
309 312 313 314 314 312 311 311 309 305 303 298 290 285 278 274 268 262 259 257 252 248 240 238 236 234 231 231 230 223 221 221 221 220 220 222 220 215 209 202 198 200 200
309 311 312 311 310 309 309 310 308 306 304 301 296 291 284 277 269 259 258 255 250 247 246 239 237 235 232 230 229 224 223 221 222 221 221 224 220 216 213 204 197 196 205
310 311 310 309 309 308 308 306 305 305 304 301 297 292 288 283 274 263 259 258 253 248 246 243 238 235 232 230 228 222 221 220 220 220 220 221 219 214 216 209 202 199 204
310 311 309 308 306 306 305 305 302 303 302 301 298 294 292 286 278 270 262 261 258 252 247 248 239 234 232 229 230 225 220 218 219 218 218 216 216 212 210 208 210 210 205
310 310 309 308 306 307 306 306 305 305 304 304 300 298 295 290 277 272 269 267 263 258 250 247 244 236 230 228 229 224 219 218 218 215 216 214 210 208 207 206 207 209 201
309 309 310 310 309 308 308 307 307 306 307 306 302 300 295 294 281 276 274 270 266 259 252 248 247 239 230 228 229 222 218 218 215 213 213 212 206 205 205 203 203 203 199
309 309 310 310 309 309 309 308 307 307 307 305 303 301 299 297 287 282 280 276 270 263 258 250 247 241 232 228 229 221 217 217 214 212 212 209 203 203 203 200 200 197 190
308 308 310 309 308 308 309 309 308 307 306 304 303 301 301 299 290 285 282 282 278 273 265 254 248 242 235 229 227 221 217 215 214 213 212 208 205 203 200 198 196 191 184
308 310 311 310 309 309 310 310 307 306 305 305 304 301 301 300 289 282 281 281 281 277 271 259 251 244 234 225 222 218 215 214 213 213 210 208 205 203 200 196 191 187 184
310 312 313 311 309 310 311 310 307 306 306 305 305 304 304 304 300 285 284 283 286 280 276 264 260 248 235 227 223 221 213 212 212 211 206 203 199 197 195 196 193 191 188
310 311 311 309 307 308 308 306 306 306 305 304 305 305 304 303 304 297 283 282 284 280 275 271 269 254 245 225 216 221 215 212 214 207 199 198 197 193 191 186 183 193 194
308 310 310 308 306 306 305 304 306 305 304 305 306 307 305 303 303 303 293 285 283 274 276 275 271 259 245 222 213 216 215 212 213 204 196 194 193 192 184 180 185 192 193
307 308 308 306 304 304 305 306 305 305 306 307 306 304 303 302 300 300 295 294 288 280 280 275 272 262 247 225 216 222 212 211 212 201 195 189 187 179 172 175 178 177 176
309 310 309 307 305 305 307 304 303 304 306 307 307 304 301 297 295 296 295 294 287 277 279 278 277 262 245 231 222 232 212 210 207 193 187 182 180 176 174 176 174 173 171
309 310 308 306 306 307 307 302 301 300 303 305 305 302 299 296 296 297 294 292 289 281 284 286 281 266 244 233 225 235 216 212 198 184 182 182 174 176 178 176 176 170 162
310 312 309 307 308 308 305 302 302 304 305 306 306 303 301 301 301 302 302 300 298 289 286 286 292 279 251 244 241 243 242 226 195 188 184 178 169 171 172 171 160 151 148
309 310 308 307 308 308 306 302 303 306 308 308 308 307 309 308 308 304 303 304 300 291 286 289 288 296 293 282 251 242 256 216 192 179 170 169 164 161 162 155 149 149 151
308 310 309 307 308 309 305 302 304 306 307 308 308 310 310 310 310 308 303 302 301 299 298 289 287 294 294 286 281 270 118 136 144 148 145 150 152 151 146 149 151 154 155
307 308 306 306 306 307 306 306 306 306 307 307 307 309 308 305 308 307 303 298 291 283 288 287 277 272 279 280 277 273 232 184 159 151 150 151 152 154 153 152 153 151 149
306 307 306 306 307 308 308 308 307 306 305 305 308 309 308 306 305 309 314 312 293 302 297 292 288 285 280 289 297 282 226 176 160 151 156 158 157 156 156 156 153 150 151
Height
1471 1469 1468 1466 1463 1461 1459 1457 1454 1452 1451 1449 1447 1445 1444 1442 1441 1440 1440 1440 1441 1441 1441 1442 1443 1444 1445 1446 1449 1452 1454 1457 1460 1463 1465 1467 1469 1472 1474 1476 1479 1482 1485
1468 1467 1465 1462 1460 1457 1455 1452 1449 1448 1446 1444 1443 1441 1439 1437 1435 1435 1434 1434 1435 1435 1435 1436 1437 1438 1439 1441 1443 1445 1449 1451 1454 1457 1460 1462 1466 1466 1469 1471 1473 1477 1480
1466 1463 1461 1459 1456 1453 1450 1448 1445 1443 1441 1439 1437 1435 1433 1431 1429 1429 1428 1427 1428 1428 1429 1429 1430 1431 1433 1434 1436 1439 1442 1445 1448 1451 1454 1456 1456 1460 1463 1465 1468 1471 1474
1463 1461 1458 1455 1452 1449 1446 1443 1440 1438 1436 1434 1432 1430 1427 1424 1423 1422 1421 1420 1421 1421 1422 1422 1423 1425 1426 1427 1429 1432 1435 1438 1441 1444 1447 1450 1450 1453 1456 1460 1462 1465 1468
1460 1457 1455 1452 1449 1446 1442 1439 1436 1433 1430 1428 1426 1423 1420 1418 1416 1415 1414 1413 1413 1414 1414 1415 1416 1417 1419 1420 1422 1425 1428 1431 1434 1437 1439 1442 1445 1447 1449 1452 1457 1460 1463
1457 1454 1452 1449 1445 1442 1438 1435 1431 1427 1425 1422 1419 1416 1413 1410 1408 1407 1406 1405 1405 1406 1406 1407 1408 1410 1411 1413 1415 1418 1421 1424 1428 1431 1433 1435 1437 1440 1443 1446 1449 1454 1457
1454 1451 1448 1444 1440 1437 1434 1430 1426 1421 1418 1415 1412 1409 1406 1403 1400 1399 1398 1397 1397 1397 1397 1399 1400 1402 1404 1406 1408 1410 1413 1417 1420 1423 1426 1429 1432 1435 1438 1440 1444 1449 1452
1451 1448 1444 1440 1436 1433 1429 1425 1421 1416 1412 1409 1405 1402 1398 1395 1392 1391 1390 1389 1388 1388 1390 1391 1392 1394 1396 1398 1400 1403 1406 1409 1413 1416 1420 1423 1426 1429 1432 1435 1438 1443 1446
1447 1444 1440 1436 1432 1428 1424 1421 1416 1411 1407 1403 1398 1395 1391 1388 1385 1383 1382 1381 1380 1380 1381 1382 1384 1386 1388 1390 1393 1395 1398 1401 1405 1408 1412 1416 1419 1423 1426 1429 1433 1435 1438
1443 1440 1436 1432 1428 1424 1420 1416 1411 1406 1401 1397 1392 1388 1384 1381 1378 1375 1374 1373 1372 1372 1373 1374 1375 1377 1380 1382 1385 1387 1390 1394 1397 1401 1405 1409 1412 1416 1419 1423 1427 1430 1433
1439 1435 1431 1427 1423 1419 1415 1410 1405 1400 1395 1390 1386 1382 1378 1374 1371 1369 1367 1366 1365 1364 1365 1365 1367 1369 1371 1374 1377 1379 1382 1386 1390 1394 1398 1401 1406 1409 1413 1417 1421 1424 1427
1435 1431 1427 1422 1418 1413 1408 1404 1399 1395 1390 1385 1380 1376 1372 1368 1365 1363 1361 1360 1358 1357 1357 1358 1359 1360 1363 1366 1369 1371 1374 1378 1382 1385 1390 1394 1399 1403 1407 1411 1414 1418 1421
1430 1426 1422 1418 1413 1408 1403 1399 1394 1389 1384 1380 1375 1370 1366 1362 1360 1357 1355 1354 1352 1350 1350 1350 1351 1352 1355 1358 1361 1364 1367 1371 1374 1378 1382 1387 1392 1396 1401 1404 1408 1412 1416
1426 1422 1418 1413 1408 1403 1399 1394 1389 1384 1379 1374 1369 1364 1360 1357 1354 1351 1349 1347 1346 1344 1343 1343 1343 1345 1347 1350 1353 1356 1360 1363 1367 1371 1375 1380 1385 1389 1393 1398 1402 1406 1410
1421 1417 1413 1408 1403 1398 1393 1389 1384 1379 1374 1369 1364 1359 1355 1351 1349 1346 1344 1342 1340 1339 1338 1337 1337 1338 1340 1343 1346 1349 1352 1356 1359 1363 1367 1372 1377 1382 1387 1391 1395 1400 1404
1417 1413 1408 1403 1398 1393 1389 1384 1379 1374 1369 1364 1359 1354 1350 1346 1344 1341 1339 1337 1336 1334 1333 1332 1332 1333 1335 1338 1340 1343 1346 1349 1352 1355 1359 1365 1370 1375 1380 1385 1389 1394 1399
1412 1408 1403 1399 1394 1389 1384 1379 1374 1369 1364 1359 1354 1350 1345 1342 1339 1337 1335 1333 1331 1330 1329 1328 1328 1328 1330 1332 1335 1337 1339 1342 1345 1348 1352 1357 1363 1368 1374 1379 1384 1389 1394
1408 1403 1398 1393 1389 1384 1379 1374 1369 1365 1360 1355 1351 1346 1342 1338 1336 1333 1332 1330 1328 1327 1325 1325 1325 1324 1325 1327 1329 1331 1334 1336 1339 1342 1346 1351 1356 1361 1367 1372 1378 1383 1388
1403 1399 1394 1389 1384 1379 1374 1369 1365 1361 1356 1352 1347 1343 1339 1336 1333 1330 1328 1327 1325 1324 1322 1322 1321 1321 1321 1323 1324 1327 1328 1330 1333 1336 1341 1345 1350 1356 1361 1367 1372 1377 1383
1398 1393 1388 1383 1379 1374 1370 1365 1361 1357 1352 1348 1344 1340 1336 1333 1330 1328 1326 1324 1322 1321 1320 1319 1318 1318 1317 1319 1320 1322 1323 1325 1327 1331 1335 1340 1345 1351 1357 1361 1366 1371 1376
1393 1388 1383 1378 1374 1370 1366 1361 1357 1353 1349 1344 1340 1337 1334 1331 1328 1325 1323 1321 1319 1318 1317 1316 1315 1315 1315 1315 1316 1318 1320 1321 1323 1326 1331 1336 1342 1347 1352 1358 1362 1367 1372
1388 1383 1379 1374 1370 1366 1362 1357 1353 1349 1345 1341 1337 1334 1331 1329 1325 1322 1320 1319 1317 1315 1314 1313 1312 1312 1313 1313 1314 1315 1316 1318 1320 1323 1327 1332 1338 1343 1348 1353 1358 1364 1369
1384 1379 1374 1369 1365 1361 1357 1353 1349 1346 1342 1338 1334 1331 1328 1326 1323 1321 1319 1317 1315 1314 1312 1311 1310 1310 1310 1310 1311 1312 1313 1315 1317 1320 1325 1330 1335 1340 1345 1350 1356 1361 1366
1379 1375 1370 1365 1361 1357 1354 1350 1346 1342 1339 1335 1332 1329 1326 1323 1321 1320 1318 1316 1314 1312 1311 1310 1309 1308 1308 1308 1309 1309 1310 1312 1315 1318 1322 1327 1332 1337 1343 1348 1353 1358 1363
1375 1371 1366 1362 1357 1353 1350 1346 1343 1340 1336 1333 1330 1327 1324 1322 1319 1317 1316 1314 1313 1312 1310 1309 1308 1307 1306 1306 1307 1307 1308 1310 1312 1316 1321 1325 1330 1335 1340 1345 1350 1355 1360
1371 1366 1362 1358 1354 1350 1346 1343 1340 1337 1333 1330 1327 1325 1322 1320 1318 1315 1313 1312 1311 1310 1309 1308 1307 1306 1306 1305 1305 1305 1306 1308 1312 1316 1319 1324 1328 1333 1338 1342 1347 1353 1358